Showing default

IRIDIUM 151, 43074

Orbit data source: Space-Track

IRIDIUM 151, 43074 is a payload satellite owned by Iridium (US) in LEO that was launched on Sat, 23 Dec 2017 UTC via an FALCON 9 launch vehicle from the Air Force Western Test Range (AFWTR). Payload-class satellites include a variety of spacecraft equipped with specific instruments for various scientific and technological missions. These include communications satellites like Starlink; space stations such as the ISS; scientific satellites like the Hubble; Earth observation satellites from companies like Planet Labs, Umbra, and HawkEye 360; GPS; miniature CubeSats for education and research; and military/defense satellites.

Loading next visibility...
Identifier
43074, 2017-083E
Orbit
LEO
Country
Flag of USUS
Related business
Manufacturer
OATK SSG Gilbert
Mission
Operational Commercial Communications
Bus & Motor
ELITEBUS, Unknown motor
Mass
860 kg wet, 700 kg dry
Launch date (UTC)
2017-12-23 (8 years ago)
Launch vehicle
FALCON 9
Launch site
Air Force Western Test Range (AFWTR)
Object type
Payload
Rocket body
Debris
Shape & HBR
Trap Box + 2 Pan, 4.8 m
Radar Cross Section
10.154 m², Large (>1 m²)

Expand to show TLE details & history
Last TLE update: 7 hours ago

TLE from 7 hours ago
0 IRIDIUM 151
1 43074U 17083E   25303.27063810  .00000407  00000-0  13821-3 0  9996
2 43074  86.3972  58.1526 0001905  97.9784 262.1628 14.34218968411189
Epoch: 2025-10-30T06:29Z
TLE epoch observation values (Epoch: 2025-10-30T06:29:43.131Z)
Latitude
-0.00005°
Longitude
-78.10894°
Altitude
780.9 km
Speed
7.463 km/s
True Right ascension
03h 52m 36s
True Declination
0° 00' 00"
Sunlit
Object was in full shadow at epoch
Visualization orbit readout
Latitude
Unknown
Longitude
Unknown
Altitude
Unknown
Speed
Unknown
Apparent Right ascension
Unknown
Apparent Declination
Unknown
Sunlit
N/A
Visualization observer readout
Local Sidereal Time
09:11:37
Azimuth
Unknown
Elevation
Unknown
Doppler factor
Unknown
Orbital elements
Apogee altitude
775.99 km
Perigee altitude
773.265 km
Semi-major axis
7,152.765 km
Eccentricity
0.00019
Inclination
86.3972°
RAAN
58.1526°
Arg. of periapsis
97.9784°
True anomaly
262.14117°
Mean anomaly
262.1628°
Eccentric anomaly
262.15199°
Mean motion
3.58783 °/min
Orbital period
100.34 mins
BSTAR
0.00013821
Loading maneuver chart data...
Computing Atmospheric mass density...
Loading historical data...
Loading historical data...
Loading historical data...
Loading historical data...
Loading historical data...
Loading historical data...
Loading historical data...

Documentation

Showing up to 5 results
|